This is the latest recevied weather packets stored in our database for station/object WW3TRG. If no packets are shown the sender has not sent any weather packets the latest 10 day(s).
| Time | Temp. | Humidity | Pressure | Rain* | Wind** | Luminosity | Snow |
|---|---|---|---|---|---|---|---|
| 1778091060 | 16.11° C | 99% | 1006.6 hPa | 1.27 mm | - | 50 W/m² | - |
| 1778090756 | 15.56° C | 99% | 1006.6 hPa | 0.51 mm | - | 39 W/m² | - |
| 1778090453 | 15.56° C | 99% | 1006.6 hPa | 1.27 mm | - | 48 W/m² | - |
| 1778090149 | 15.56° C | 99% | 1006.9 hPa | 0.51 mm | - | 49 W/m² | - |
| 1778089845 | 15.56° C | 99% | 1007 hPa | 0.51 mm | - | 40 W/m² | - |
| 1778089545 | 15.56° C | 99% | 1006.5 hPa | 1.78 mm | - | 28 W/m² | - |
| 1778089240 | 15.56° C | 99% | 1006.8 hPa | 1.27 mm | - | 35 W/m² | - |
| 1778088938 | 15.56° C | 99% | 1006.5 hPa | 0 mm | - | 27 W/m² | - |
| 1778088634 | 15.56° C | 99% | 1006.6 hPa | 0.51 mm | - | 28 W/m² | - |
| 1778088331 | 16.11° C | 99% | 1006.5 hPa | 0.51 mm | - | 48 W/m² | - |
| 1778088022 | 16.11° C | 99% | 1006.8 hPa | 0.51 mm | - | 91 W/m² | - |
| 1778087720 | 16.11° C | 99% | 1006.6 hPa | 0.51 mm | - | 91 W/m² | - |
| 1778087417 | 15.56° C | 99% | 1006.9 hPa | 1.27 mm | - | 82 W/m² | - |
| 1778087115 | 15.56° C | 99% | 1007.2 hPa | 0.51 mm | - | 72 W/m² | - |
| 1778086812 | 15.56° C | 99% | 1007.1 hPa | 1.27 mm | - | 69 W/m² | - |
| 1778086510 | 15.56° C | 99% | 1006.9 hPa | 1.78 mm | - | 51 W/m² | - |
| 1778086200 | 15.56° C | 99% | 1006.9 hPa | 1.27 mm | - | 70 W/m² | - |
| 1778085897 | 15.56° C | 99% | 1006.8 hPa | 0 mm | - | 56 W/m² | - |
| 1778085595 | 15.56° C | 99% | 1006.9 hPa | 0.51 mm | - | 37 W/m² | - |
| 1778085290 | 15.56° C | 99% | 1006.8 hPa | 0.51 mm | - | 23 W/m² | - |
| 1778084985 | 15.56° C | 99% | 1006.9 hPa | 0.51 mm | - | 27 W/m² | - |
| 1778084683 | 15.56° C | 99% | 1007.2 hPa | 0.51 mm | - | 31 W/m² | - |
| 1778084380 | 16.11° C | 99% | 1007.1 hPa | 1.27 mm | - | 43 W/m² | - |
| 1778084078 | 16.11° C | 99% | 1007 hPa | 0 mm | - | 39 W/m² | - |
| 1778083775 | 16.11° C | 99% | 1006.9 hPa | 0 mm | - | 24 W/m² | - |
* Rain latest hour (hover to see other rain measurements)
** Current wind speed in m/s (hover to see current wind gust speed)